This is the latest recevied weather packets stored in our database for station/object EA5JUX. If no packets are shown the sender has not sent any weather packets the latest 10 day(s).
| Time | Temp. | Humidity | Pressure | Rain* | Wind** | Luminosity | Snow |
|---|---|---|---|---|---|---|---|
| 1778247157 | 18.89° C | 69% | 1011.9 hPa | 0 mm | - | - | - |
| 1778246836 | 19.44° C | 70% | 1012 hPa | 0 mm | - | - | - |
| 1778246536 | 19.44° C | 69% | 1011.9 hPa | 0 mm | - | - | - |
| 1778246236 | 19.44° C | 69% | 1011.9 hPa | 0 mm | - | - | - |
| 1778245936 | 19.44° C | 69% | 1011.9 hPa | 0 mm | - | - | - |
| 1778245636 | 19.44° C | 68% | 1012 hPa | 0 mm | - | - | - |
| 1778245336 | 19.44° C | 69% | 1012 hPa | 0 mm | - | - | - |
| 1778245036 | 18.89° C | 70% | 1011.9 hPa | 0 mm | - | - | - |
| 1778244736 | 18.89° C | 69% | 1012 hPa | 0 mm | - | - | - |
| 1778244436 | 19.44° C | 69% | 1012.1 hPa | 0 mm | - | - | - |
| 1778244136 | 19.44° C | 70% | 1012 hPa | 0 mm | - | - | - |
| 1778243836 | 18.89° C | 69% | 1012.1 hPa | 0 mm | - | - | - |
| 1778243536 | 19.44° C | 70% | 1012.3 hPa | 0 mm | - | - | - |
| 1778243236 | 18.89° C | 71% | 1012 hPa | 0 mm | - | - | - |
| 1778242936 | 18.33° C | 69% | 1012.2 hPa | 0 mm | - | - | - |
| 1778242636 | 18.33° C | 70% | 1012.4 hPa | 0 mm | - | - | - |
| 1778242336 | 18.89° C | 70% | 1012.4 hPa | 0 mm | - | - | - |
| 1778242054 | 18.89° C | 70% | 1012.3 hPa | 0 mm | - | - | - |
| 1778241736 | 18.33° C | 69% | 1012.2 hPa | 0 mm | - | - | - |
| 1778241436 | 18.33° C | 70% | 1012.1 hPa | 0 mm | - | - | - |
| 1778241136 | 18.33° C | 70% | 1012.3 hPa | 0 mm | - | - | - |
| 1778240858 | 18.33° C | 70% | 1012.2 hPa | 0 mm | - | - | - |
| 1778240536 | 17.78° C | 72% | 1012.1 hPa | 0 mm | - | - | - |
| 1778240236 | 17.22° C | 75% | 1012.1 hPa | 0 mm | - | - | - |
| 1778239936 | 17.22° C | 79% | 1012.3 hPa | 0 mm | - | - | - |
* Rain latest hour (hover to see other rain measurements)
** Current wind speed in m/s (hover to see current wind gust speed)